SAUDICOMSAT 5

Last updated on Fri Dec 29 2023 00:03:02 GMT+0000 (Greenwich Mean Time)

1 31124U 07012H 23361.81796973 .00001510 00000+0 28523-3 0 9995 2 31124 98.2260 311.1847 0051493 83.7724 276.9341 14.65075349891305
UTC large
Height (km)
Speed (km/s)
/
Latitude / Longitude
Inclination (degrees)
Orbital Period (minutes)
Azimuth
Elevation
Range (km)
Doppler Factor

Next 0 passes for location: London (51.5072 / 0.1276)

Sorry there are no passes over London.